Friday, October 24, 2014
15:30 UTC
  |  Log In   |  Register Free
Airport Search:

Durant Regional - Eaker Field Airport
(KDUA)

Durant Regional - Eaker Field Airport Diagram
No Airport Diagram Available

FAA data valid effective September 18, 2014 - November 13, 2014 (unless otherwise noted).

 
 
 
 
 
 
 
 
 
 
 
 
 
 

Current Aviation Weather for Durant Regional - Eaker Field Airport (KDUA)

The most recent METAR observation for KDUA was updated at: 1513
METAR Summary (Translated METAR)
KDUA
241455Z AUTO 17007KT 10SM BKN055 16/15 A3017 RMK AO2
KGYI
241455Z AUTO 16009KT 10SM CLR 20/15 A3017 RMK AO2 T01970151
(19.5 nm SW from KDUA)
KAQR
241455Z AUTO 17006KT 10SM BKN050 17/11 A3017 RMK AO2
(30 nm NE from KDUA)
TAF
No TAF information found within 50 nm of KDUA
  Airport Weather Conditions for KDUA

 Current Weather at DUA
61° F
Mostly Cloudy
South winds at 8.1 mph
DUA NOAA Radar

Pressure: 30.17 in
Humidity: 94%
Wind: South at 8.1 MPH (7 KT)
Dew Point: 59.0°F
Visibility: 10.00 mi


Airport Weather Forecast for KDUA

Translated METAR and TAF for KDUA
Translated METAR for KDUA (1525 UTC 24 October 2014)
found at http://aviationweather.gov/adds/metars/
 
METAR text: KDUA 241515Z AUTO 19008KT 10SM SCT055 17/15 A3017 RMK AO2
Conditions at: KDUA (DURANT , OK, US) observed 1515 UTC 24 October 2014
Temperature: 17.0°C (63°F)
Dewpoint: 15.0°C (59°F) [RH = 88%]
Pressure (altimeter): 30.17 inches Hg (1021.8 mb)
Winds: from the S (190 degrees) at 9 MPH (8 knots; 4.2 m/s)
Visibility: 10 or more miles (16+ km)
Ceiling: at least 12,000 feet AGL
Clouds: scattered clouds at 5500 feet AGL
Weather: automated observation with no human augmentation;
there may or may not be significant weather present at this time
Translated TAF for KDUA

There is no translated TAF available for this airport

Find All Airport Services Find A Hotel Find A Rental Car Find A Golf Course Find A Restaurant $100 Hamburger



FBO's on the Field
FBO Company Facility Photos Services Transportation Aviation Fuel Prices: Prices include tax
Catering Weather Repair Courtesy Rental Type 100LL JetA JetA+ MOGAS 8087
 
D/W Aviation

This FBO has not yet been rated
FS:Avfuel
Last Updated: Oct-20
Login to update fuel prices
SS:
Contact D/W AviationMore FBO Information
 
Add another FBO Facility Photos Catering Weather Repair Courtesy Rental Type 100LL JetA JetA+ MOGAS 8087
Services Transportation Aviation Fuel Prices: Prices include tax


model-print
model-print
model-print
model-print